2022年5月23日

时间 代码 天气 温度 能见度 乌云 METAR/SPECI
10:00
M
18 °C 10 km+ 1.500 ft 280°   280° 12 kt METAR LFMK 230800Z AUTO 28012KT 240V300 9999 BKN015 OVC022 18/15 Q1011 BECMG 27018G30KT
09:30
M
18 °C 10 km+ 1.700 ft 270°   270° 10 kt METAR LFMK 230730Z AUTO 27010KT 9999 OVC017 18/15 Q1010 BECMG 27018G30KT
09:00
M
18 °C 10 km+ 1.800 ft 280°   280° 12 kt METAR LFMK 230700Z AUTO 28012KT 9999 OVC018 18/15 Q1010 NOSIG
08:30
M
18 °C 10 km+ 1.600 ft 280°   280° 10 kt METAR LFMK 230630Z AUTO 28010KT 9999 OVC016 18/15 Q1010 NOSIG
08:00
M
18 °C 10 km+ 2.100 ft 280°   280° 10 kt METAR LFMK 230600Z AUTO 28010KT 9999 OVC021 18/15 Q1010 NOSIG
07:30
M
18 °C 10 km+ 2.000 ft 270°   270° 12 kt METAR LFMK 230530Z AUTO 27012KT 230V290 9999 FEW015 BKN020 OVC027 18/15 Q1010 NOSIG
07:00
M
19 °C 10 km+ 2.400 ft 270°   270° 8 kt METAR LFMK 230500Z AUTO 27008KT 230V290 9999 FEW017 OVC024 19/16 Q1009 NOSIG
06:30
M
19 °C 10 km+ 2.400 ft 260°   260° 8 kt METAR LFMK 230430Z AUTO 26008KT 9999 OVC024 19/16 Q1009 NOSIG
06:00
M
19 °C 10 km+ 2.500 ft 260°   260° 8 kt METAR LFMK 230400Z AUTO 26008KT 230V290 9999 OVC025 19/16 Q1009 NOSIG
05:30
M
19 °C 10 km+ 2.600 ft 260°   260° 9 kt METAR LFMK 230330Z AUTO 26009KT 230V290 9999 BKN026 OVC052 19/16 Q1009 NOSIG
05:00
V
19 °C 10 km+ 3.100 ft 280°   280° 9 kt METAR LFMK 230300Z AUTO 28009KT 240V300 9999 BKN031 BKN038 OVC044 19/16 Q1009
04:30
M
20 °C 10 km+ 2.200 ft 270°   270° 9 kt METAR LFMK 230230Z AUTO 27009KT 240V300 9999 OVC022 20/16 Q1010
04:00
I
19 °C 9 km 800 ft 280°   280° 4 kt METAR LFMK 230200Z AUTO 28004KT 240V310 9000 BKN008 BKN012 OVC020 19/18 Q1010
03:30
M
19 °C 10 km+ 1.400 ft Var   Var 2 kt METAR LFMK 230130Z AUTO VRB02KT 9999 SCT007 OVC014 19/18 Q1010
03:00
I
19 °C 10 km+ 700 ft 030°   030° 6 kt METAR LFMK 230100Z AUTO 03006KT 300V100 9999 OVC007 19/18 Q1010
02:30
I
19 °C 10 km+ 700 ft 070°   070° 6 kt METAR LFMK 230030Z AUTO 07006KT 9999 BKN007 OVC170 19/18 Q1008
02:00
V
19 °C 10 km+ 18.000 ft 060°   060° 7 kt METAR LFMK 230000Z AUTO 06007KT 9999 FEW007 OVC180 19/18 Q1008
01:30
V
19 °C 10 km+ 20.000 ft 070°   070° 9 kt METAR LFMK 222330Z AUTO 07009KT 9999 SCT009 BKN200 OVC230 19/18 Q1009
01:00
V
20 °C 10 km+ 21.000 ft 100°   100° 8 kt METAR LFMK 222300Z AUTO 10008KT 060V150 9999 SCT008 OVC210 20/18 Q1009
00:30
I
20 °C 10 km+ 900 ft 040°   040° 10 kt METAR LFMK 222230Z AUTO 04010KT 010V070 9999 BKN009 BKN013 OVC160 20/18 Q1010
00:00
V
20 °C 10 km+ 16.000 ft 090°   090° 10 kt METAR LFMK 222200Z AUTO 09010KT 9999 FEW011 BKN160 OVC220 20/18 Q1009

2022年5月22日

时间 代码 天气 温度 能见度 乌云 METAR/SPECI
23:30
V
20 °C 10 km+ - 080°   080° 11 kt METAR LFMK 222130Z AUTO 08011KT 060V120 CAVOK 20/18 Q1008
23:00
V
20 °C 10 km+ - 080°   080° 12 kt METAR LFMK 222100Z AUTO 08012KT CAVOK 20/18 Q1008
22:30
V
21 °C 10 km+ - 080°   080° 16 kt METAR LFMK 222030Z AUTO 08016KT CAVOK 21/18 Q1008
22:00
V
22 °C 10 km+ - 080°   080° 11 kt METAR LFMK 222000Z AUTO 08011KT 060V120 CAVOK 22/18 Q1008
21:30
V
22 °C 10 km+ - 080°   080° 12 kt METAR LFMK 221930Z AUTO 08012KT CAVOK 22/18 Q1008
21:00
V
23 °C 10 km+ - 080°   080° 10 kt METAR LFMK 221900Z AUTO 08010KT CAVOK 23/19 Q1008
20:30
V
24 °C 10 km+ - 070°   070° 14 kt METAR LFMK 221830Z AUTO 07014KT CAVOK 24/19 Q1007
20:00
V
25 °C 10 km+ - 030°   030° 5 kt METAR LFMK 221800Z AUTO 03005KT 340V050 CAVOK 25/19 Q1007 NOSIG
19:30
V
26 °C 10 km+ - 080°   080° 10 kt METAR LFMK 221730Z AUTO 08010KT 060V120 9999 FEW072/// //////TCU 26/19 Q1008 BECMG NSC
19:00
V
27 °C 10 km+ - 100°   100° 7 kt METAR LFMK 221700Z AUTO 10007KT 070V150 CAVOK 27/19 Q1008 TEMPO FEW080CB
18:30
V
28 °C 10 km+ - 090°   090° 9 kt METAR LFMK 221630Z AUTO 09009KT 070V130 CAVOK 28/19 Q1008 TEMPO FEW080CB
18:00
V
28 °C 10 km+ - 080°   080° 12 kt METAR LFMK 221600Z AUTO 08012KT CAVOK 28/19 Q1008 TEMPO FEW080CB
17:30
V
30 °C 10 km+ - 080°   080° 14 kt METAR LFMK 221530Z AUTO 08014KT CAVOK 30/18 Q1008 TEMPO FEW080CB
17:00
V
29 °C 10 km+ - 080°   080° 14 kt METAR LFMK 221500Z AUTO 08014KT CAVOK 29/15 Q1009 TEMPO FEW080CB
16:30
V
30 °C 10 km+ - 080°   080° 14 kt METAR LFMK 221430Z AUTO 08014KT 9999 //////TCU 30/17 Q1008 TEMPO 09015G25KT BECMG NSC
16:00
V
30 °C 10 km+ - 080°   080° 14 kt METAR LFMK 221400Z AUTO 08014KT 060V120 CAVOK 30/17 Q1009 TEMPO 09015G25KT
15:30
V
30 °C 10 km+ - 080°   080° 14 kt METAR LFMK 221330Z AUTO 08014KT 050V130 CAVOK 30/16 Q1009 TEMPO 09015G25KT
15:00
V
30 °C 10 km+ - 080°   080° 15 kt METAR LFMK 221300Z AUTO 08015KT CAVOK 30/16 Q1010 TEMPO 09015G25KT
14:30
V
29 °C 10 km+ - 090°   090° 13 kt METAR LFMK 221230Z AUTO 09013KT 070V130 CAVOK 29/16 Q1010 TEMPO 09015G25KT
14:00
V
29 °C 10 km+ - 080°   080° 13 kt METAR LFMK 221200Z AUTO 08013KT 050V110 CAVOK 29/16 Q1010 TEMPO 09015G25KT
13:30
V
29 °C 10 km+ - 090°   090° 10 kt METAR LFMK 221130Z AUTO 09010KT 060V150 CAVOK 29/15 Q1011 TEMPO 09015G25KT
13:00
V
28 °C 10 km+ - 090°   090° 10 kt METAR LFMK 221100Z AUTO 09010KT 070V140 CAVOK 28/15 Q1011 TEMPO 09015G25KT
12:30
V
27 °C 10 km+ - 090°   090° 10 kt METAR LFMK 221030Z AUTO 09010KT 050V140 CAVOK 27/17 Q1012 TEMPO 09015G25KT
12:00
V
26 °C 10 km+ - 080°   080° 9 kt METAR LFMK 221000Z AUTO 08009KT CAVOK 26/17 Q1012 TEMPO 09015G25KT
11:30
V
25 °C 10 km+ - 080°   080° 8 kt METAR LFMK 220930Z AUTO 08008KT 050V120 CAVOK 25/16 Q1012 TEMPO 09015G25KT
11:00
V
25 °C 10 km+ - 080°   080° 9 kt METAR LFMK 220900Z AUTO 08009KT 060V120 CAVOK 25/15 Q1012 NOSIG
10:30
V
24 °C 10 km+ - 080°   080° 9 kt METAR LFMK 220830Z AUTO 08009KT 050V110 CAVOK 24/16 Q1013 BECMG 08015G25KT
10:00
V
22 °C 10 km+ - 080°   080° 7 kt METAR LFMK 220800Z AUTO 08007KT 050V120 CAVOK 22/17 Q1013 BECMG 08015G25KT
09:30
V
21 °C 10 km+ - 080°   080° 6 kt METAR LFMK 220730Z AUTO 08006KT 050V110 9999 FEW008 21/18 Q1013 BECMG 08015G25KT
09:00
I
20 °C 10 km+ 700 ft 080°   080° 5 kt METAR LFMK 220700Z AUTO 08005KT 060V130 9999 BKN007 20/17 Q1013 BECMG NSC
08:30
I
19 °C 10 km+ 600 ft 070°   070° 7 kt METAR LFMK 220630Z AUTO 07007KT 9999 BKN006 19/17 Q1013 BECMG NSC
08:00
I
18 °C 10 km+ 500 ft 070°   070° 4 kt METAR LFMK 220600Z AUTO 07004KT 9999 BKN005 18/17 Q1014 BECMG NSC
07:30
L
18 °C 9 km 400 ft 070°   070° 4 kt METAR LFMK 220530Z AUTO 07004KT 040V110 9000 BKN004 18/17 Q1014 BECMG NSC
07:00
L
17 °C 8 km 400 ft 080°   080° 6 kt METAR LFMK 220500Z AUTO 08006KT 060V130 8000 BKN004 17/17 Q1013 BECMG NSC
06:30
V
17 °C 9 km - 090°   090° 5 kt METAR LFMK 220430Z AUTO 09005KT 060V140 9000 SCT005 17/17 Q1013 NOSIG
06:00
M
17 °C 6 km - 090°   090° 5 kt METAR LFMK 220400Z AUTO 09005KT 070V130 6000 FEW004 17/17 Q1013 TEMPO OVC002
05:30
L
18 °C 6 km 400 ft 090°   090° 5 kt METAR LFMK 220330Z AUTO 09005KT 060V130 6000 BKN004 18/17 Q1013 BECMG NSC
05:00
L
18 °C 5 km 200 ft 090°   090° 9 kt METAR LFMK 220300Z AUTO 09009KT 5000 BR OVC002 18/17 Q1013 BECMG NSC
04:30
L
18 °C 7 km 400 ft 090°   090° 9 kt METAR LFMK 220230Z AUTO 09009KT 060V120 7000 BKN004 18/17 Q1013
04:00
V
18 °C 8 km - 090°   090° 8 kt METAR LFMK 220200Z AUTO 09008KT 060V130 8000 FEW005 18/17 Q1014
03:30
V
18 °C 10 km+ - 090°   090° 7 kt METAR LFMK 220130Z AUTO 09007KT 070V140 CAVOK 18/17 Q1014
03:00
V
18 °C 10 km+ - 100°   100° 6 kt METAR LFMK 220100Z AUTO 10006KT 070V140 CAVOK 18/17 Q1014
02:30
V
18 °C 10 km+ - 100°   100° 5 kt METAR LFMK 220030Z AUTO 10005KT 070V140 CAVOK 18/17 Q1014
02:00
V
19 °C 10 km+ - 100°   100° 5 kt METAR LFMK 220000Z AUTO 10005KT 070V130 CAVOK 19/17 Q1015
01:30
V
18 °C 10 km+ - 070°   070° 5 kt METAR LFMK 212330Z AUTO 07005KT 040V100 CAVOK 18/17 Q1015
01:00
V
19 °C 10 km+ - 060°   060° 5 kt METAR LFMK 212300Z AUTO 06005KT CAVOK 19/17 Q1016
00:30
V
19 °C 10 km+ - 060°   060° 6 kt METAR LFMK 212230Z AUTO 06006KT CAVOK 19/17 Q1016
00:00
V
21 °C 10 km+ - 090°   090° 4 kt METAR LFMK 212200Z AUTO 09004KT CAVOK 21/17 Q1016

2022年5月21日

时间 代码 天气 温度 能见度 乌云 METAR/SPECI
23:30
V
21 °C 10 km+ - 090°   090° 5 kt METAR LFMK 212130Z AUTO 09005KT 060V130 CAVOK 21/17 Q1016
23:00
V
21 °C 10 km+ - 080°   080° 5 kt METAR LFMK 212100Z AUTO 08005KT CAVOK 21/17 Q1016
22:30
V
22 °C 10 km+ - 070°   070° 5 kt METAR LFMK 212030Z AUTO 07005KT CAVOK 22/16 Q1016
22:00
V
23 °C 10 km+ - 100°   100° 5 kt METAR LFMK 212000Z AUTO 10005KT 070V140 CAVOK 23/16 Q1016
21:30
V
23 °C 10 km+ - 100°   100° 3 kt METAR LFMK 211930Z AUTO 10003KT 070V130 CAVOK 23/16 Q1016
21:00
V
24 °C 10 km+ - 080°   080° 7 kt METAR LFMK 211900Z AUTO 08007KT CAVOK 24/16 Q1016
20:30
V
25 °C 10 km+ - 080°   080° 9 kt METAR LFMK 211830Z AUTO 08009KT CAVOK 25/16 Q1016
20:00
V
26 °C 10 km+ - 070°   070° 10 kt METAR LFMK 211800Z AUTO 07010KT CAVOK 26/16 Q1016 NOSIG
19:30
V
27 °C 10 km+ - 080°   080° 10 kt METAR LFMK 211730Z AUTO 08010KT CAVOK 27/16 Q1016 NOSIG
19:00
V
28 °C 10 km+ - 080°   080° 11 kt METAR LFMK 211700Z AUTO 08011KT CAVOK 28/17 Q1016 NOSIG
18:30
V
28 °C 10 km+ - 090°   090° 11 kt METAR LFMK 211630Z AUTO 09011KT CAVOK 28/16 Q1016 NOSIG
18:00
V
29 °C 10 km+ - 090°   090° 12 kt METAR LFMK 211600Z AUTO 09012KT CAVOK 29/16 Q1016 NOSIG
17:30
V
29 °C 10 km+ - 090°   090° 11 kt METAR LFMK 211530Z AUTO 09011KT 070V150 CAVOK 29/16 Q1017 NOSIG
17:00
V
29 °C 10 km+ - 100°   100° 11 kt METAR LFMK 211500Z AUTO 10011KT 070V150 CAVOK 29/16 Q1017 TEMPO 09015G25KT
16:30
V
29 °C 10 km+ - 090°   090° 12 kt METAR LFMK 211430Z AUTO 09012KT 060V130 CAVOK 29/16 Q1017 TEMPO 09015G25KT
16:00
V
29 °C 10 km+ - 080°   080° 15 kt METAR LFMK 211400Z AUTO 08015KT CAVOK 29/16 Q1017 TEMPO 09015G25KT
15:30
V
29 °C 10 km+ - 090°   090° 15 kt METAR LFMK 211330Z AUTO 09015KT 060V120 CAVOK 29/17 Q1018 TEMPO 09015G25KT
15:00
V
29 °C 10 km+ - 090°   090° 14 kt METAR LFMK 211300Z AUTO 09014KT 060V120 CAVOK 29/17 Q1018 TEMPO 09015G25KT
14:30
V
29 °C 10 km+ - 090°   090° 14 kt METAR LFMK 211230Z AUTO 09014KT 060V130 CAVOK 29/19 Q1018 TEMPO 09015G25KT
14:00
V
28 °C 10 km+ - 080°   080° 16 kt METAR LFMK 211200Z AUTO 08016KT 060V140 CAVOK 28/18 Q1018 TEMPO 09015G25KT
13:30
V
27 °C 10 km+ - 090°   090° 14 kt METAR LFMK 211130Z AUTO 09014KT 060V120 CAVOK 27/18 Q1019 TEMPO 09015G25KT
13:00
V
27 °C 10 km+ - 080°   080° 18 kt METAR LFMK 211100Z AUTO 08018KT CAVOK 27/17 Q1019 TEMPO 09015G25KT
12:30
V
26 °C 10 km+ - 090°   090° 15 kt METAR LFMK 211030Z AUTO 09015KT CAVOK 26/17 Q1019 TEMPO 09015G25KT
12:00
V
26 °C 10 km+ - 080°   080° 18 kt METAR LFMK 211000Z AUTO 08018KT 060V130 CAVOK 26/15 Q1019 NOSIG
11:30
V
25 °C 10 km+ - 090°   090° 16 kt METAR LFMK 210930Z AUTO 09016KT CAVOK 25/15 Q1020 NOSIG
11:00
V
24 °C 10 km+ - 090°   090° 16 kt METAR LFMK 210900Z AUTO 09016KT CAVOK 24/15 Q1020 NOSIG
10:30
V
23 °C 10 km+ - 090°   090° 16 kt METAR LFMK 210830Z AUTO 09016KT CAVOK 23/14 Q1020 NOSIG
10:00
V
23 °C 10 km+ - 080°   080° 15 kt METAR LFMK 210800Z AUTO 08015KT CAVOK 23/15 Q1020 NOSIG
09:30
V
22 °C 10 km+ - 090°   090° 11 kt METAR LFMK 210730Z AUTO 09011KT 060V120 CAVOK 22/16 Q1021 NOSIG
09:00
V
21 °C 10 km+ - 090°   090° 8 kt METAR LFMK 210700Z AUTO 09008KT 060V120 CAVOK 21/16 Q1021 NOSIG
较旧的数据

下载我们的应用程序

在您的手机和平板电脑上轻松访问所有航空天气。
有许多网站上没有的功能,如离线支持和个人机场列表。

Studio Eveline

Benalmádena
España

我们和第三方通过cookies跟踪您在我们网站上的上网行为。如果您继续,我们认为您同意我们的cookie政策。 了解更多